www.pogodaiklimat.ru

Погода и климат >> Архив погоды >> Индонезия >> Матарам


ПОГОДА в Матараме

  • Прогноз погоды в Матараме
  • Монитор погоды в Матараме

АРХИВ ПОГОДЫ в Матараме

Время (UTC), дата Ветер
(напр.,м/с)
 
Видим.   Явления Облачность Т
(С)
Тd
(С)
f
(%)
Тe
(С)
Тes
(С)
Комфортность P
(гПа)
Po
(гПа)
Тmin
(С)
Tmax
(С)
R
(мм)
R24
(мм)
S
(см)
18 13.09 Ю 1 7000 м 4/3 480 м
[Cu hum Ac trans Ci fib]
+23.2 +20.9 87 +31 +31 очень
душно
1014.6 1003.0
21 13.09 ЮВ 2 7000 м 5/4 480 м
[Cu hum Ac trans Ci fib]
+23.4 +21.3 88 +31 +31 очень
душно
1014.9 1003.2
00 14.09 В 5 8000 м 5/4 480 м
[Cu hum Ac trans Ci fib]
+25.4 +21.0 77 +32 +33 очень
душно
1016.4 1004.8 +22.3
03 14.09 СВ 2 8000 м 8/6 480 м
[Cu hum Ac trans Ci fib]
+29.4 +19.7 56 +35 +41 очень
душно
1015.5 1003.9
06 14.09 В 6 8000 м 5/4 480 м
[Cu hum Ac trans Ci fib]
+30.4 +19.9 53 +37 +41 очень
душно
1012.7 1001.1
09 14.09 В 5 8000 м 5/4 480 м
[Cu hum Ac trans Ci fib]
+27.3 +20.2 65 +34 +34 очень
душно
1013.0 1001.4
12 14.09 В 2 7000 м 3/1 480 м
[Cu hum Ac trans Ci fib]
+24.6 +20.7 79 +31 +31 очень
душно
1014.4 1002.7 +31.2
15 14.09 штиль 0 7000 м 3/1 480 м
[Cu hum Ac trans Ci fib]
+22.6 +20.5 88 +29 +29 очень
душно
1014.2 1002.6
18 14.09 штиль 0 7000 м 3/1 480 м
[Cu hum Ac trans Ci fib]
+21.5 +20.3 93 +27 +27 душно 1013.4 1001.8
21 14.09 штиль 0 7000 м 3/1 480 м
[Cu hum Ac trans Ci fib]
+22.9 +20.5 86 +30 +30 очень
душно
1013.4 1001.8
00 15.09 В 4 8000 м 5/4 480 м
[Cu hum Ac trans Ci fib]
+25.4 +20.9 76 +32 +34 очень
душно
1015.3 1003.6 +21.3
03 15.09 ЮВ 5 8000 м 5/4 480 м
[Cu hum Ac trans Ci fib]
+29.6 +19.6 55 +36 +42 очень
душно
1014.2 1002.6
06 15.09 В 6 8000 м 8/6 480 м
[Cu hum Ac trans Ci fib]
+29.9 +20.3 56 +36 +39 очень
душно
1012.0 1000.4
09 15.09 В 5 8000 м 6/5 480 м
[Cu hum Ac trans Ci fib]
+27.0 +20.9 69 +34 +34 очень
душно
1011.9 1000.3
12 15.09 ЮВ 1 8000 м 3/1 480 м
[Cu hum Ac trans Ci fib]
+25.0 +21.4 80 +32 +32 очень
душно
1013.3 1001.7 +31.0
15 15.09 ЮВ 3 7000 м 3/1 480 м
[Cu hum Ac trans Ci fib]
+24.0 +21.6 86 +31 +31 очень
душно
1013.6 1002.0
18 15.09 штиль 0 7000 м 3/1 480 м
[Cu hum Ac trans Ci fib]
+22.0 +20.0 88 +28 +28 душно 1012.9 1001.6
21 15.09 штиль 0 7000 м 3/1 480 м
[Cu hum Ac trans Ci fib]
+21.0 +19.8 93 +26 +26 душно 1012.8 1001.2
00 16.09 В 3 8000 м 1/1 480 м
[Cu hum Ac trans Ci fib]
+25.0 +20.1 74 +31 +34 очень
душно
1014.4 1002.8 +20.6
03 16.09 В 5 8000 м 5/4 480 м
[Cu hum Ac trans Ci fib]
+30.7 +18.8 49 +36 +41 очень
душно
1013.3 1001.7
06 16.09 Ю 4 8000 м 8/6 480 м
[Cu hum Ac trans Ci fib]
+30.6 +20.5 55 +38 +41 очень
душно
1011.3 999.7
09 16.09 Ю 4 8000 м 8/6 480 м
[Cu hum Ac trans Ci fib]
+27.4 +21.2 69 +35 +35 очень
душно
1011.3 999.7
12 16.09 В 3 7000 м 6/5 480 м
[Cu hum Ac trans Ci fib]
+25.0 +21.4 80 +32 +32 очень
душно
1013.2 1001.6 +31.6
15 16.09 В 1 7000 м 5/4 480 м
[Cu hum Ac trans Ci fib]
+23.6 +21.5 88 +30 +30 очень
душно
1014.2 1002.6
18 16.09 штиль 0 7000 м 5/4 480 м
[Cu hum Ac trans Ci fib]
+22.8 +21.1 90 +30 +30 очень
душно
1013.6 1002.0
21 16.09 В 3 7000 м 8/6 480 м
[Cu hum Ac trans Ci fib]
+24.0 +21.3 85 +30 +30 очень
душно
1014.0 1002.4
00 17.09 В 3 8000 м 3/1 480 м
[Cu hum Ac trans Ci fib]
+25.2 +21.6 80 +32 +35 очень
душно
1015.0 1003.3 +23.0
03 17.09 ЮВ 4 10 км 3/1 480 м
[Cu hum Ac trans Ci fib]
+30.4 +18.8 50 +36 +47 очень
душно
1014.0 1002.4
06 17.09 ЮВ 3 10 км 5/4 480 м
[Cu hum Ac trans Ci fib]
+31.6 +19.9 50 +38 +46 очень
душно
1011.6 1000.0
09 17.09 8000 м н/о +28.8 +20.4 60 +35 +36 очень
душно
1012.4 1000.8
12 17.09 ЮВ 3 8000 м 6/4 480 м
[Cu hum Ac trans Ci fib]
+25.2 +21.9 82 +32 +32 очень
душно
1015.1 1003.4 +32.4
15 17.09 ЮВ 2 7000 м 6/4 480 м
[Cu hum Ac trans Ci fib]
+24.2 +22.1 88 +31 +31 очень
душно
1015.9 1004.3
18 17.09 штиль 0 8000 м 6/4 480 м
[Cu hum Ac trans Ci fib]
+23.4 +21.6 90 +32 +32 очень
душно
1014.8 1003.5
21 17.09 штиль 0 7000 м 6/4 480 м
[Cu hum Ac trans Ci fib]
+21.3 +19.3 88 +26 +26 душно 1014.9 1003.3
00 18.09 ЮВ 4 8000 м 3/1 480 м
[Cu hum Ac trans Ci fib]
+25.0 +22.3 85 +33 +35 очень
душно
1016.3 1004.7 +21.0
03 18.09 ЮВ 4 8000 м 5/4 480 м
[Cu hum Ac trans Ci fib]
+30.2 +21.0 58 +38 +46 очень
душно
1015.5 1003.8
06 18.09 ЮВ 4 8000 м 3/1 480 м
[Cu hum Ac trans Ci fib]
+31.0 +19.2 49 +36 +46 очень
душно
1013.2 1001.6
09 18.09 Ю 4 8000 м 3/1 480 м
[Cu hum Ac trans Ci fib]
+28.4 +20.3 62 +35 +36 очень
душно
1013.0 1001.4
12 18.09 ЮВ 5 7000 м 8/6 480 м
[Cu hum Ac trans Ci fib]
+25.2 +21.3 79 +32 +32 очень
душно
1014.9 1003.3 +31.0
15 18.09 ЮВ 4 7000 м 5/4 480 м
[Cu hum Ac trans Ci fib]
+24.4 +21.4 83 +31 +31 очень
душно
1015.4 1003.8
18 18.09 ЮВ 2 7000 м 4/3 480 м
[Cu hum Ac trans Ci fib]
+23.6 +21.5 88 +30 +30 очень
душно
1014.3 1002.7
21 18.09 штиль 0 7000 м 4/3 480 м
[Cu hum Ac trans Ci fib]
+20.7 +19.6 93 +25 +25 комфорт 1014.8 1003.1
00 19.09 ЮВ 3 8000 м 8/6 480 м
[Cu hum Ac trans Ci fib]
+23.4 +21.6 90 +32 +33 очень
душно
1016.0 1004.4 +20.6
03 19.09 В 3 8000 м 8/6 480 м
[Cu hum Ac trans Ci fib]
+30.0 +19.7 54 +36 +41 очень
душно
1014.9 1003.3
06 19.09 ЮВ 4 8000 м 8/6 480 м
[Cu hum Ac trans Ci fib]
+30.4 +19.9 53 +37 +40 очень
душно
1012.4 1000.8
09 19.09 Ю 3 8000 м 9/8 480 м
[Cu hum Ac trans Ci fib]
+28.0 +21.5 68 +36 +36 очень
душно
1012.8 1001.2
12 19.09 ЮВ 4 7000 м 6/6 480 м
[Cu hum Ac trans Ci fib]
+25.3 +22.0 82 +33 +33 очень
душно
1014.5 1002.9 +31.6
15 19.09 В 6 7000 м 5/5 480 м
[Cu hum Ac trans Ci fib]
+24.9 +22.2 85 +32 +32 очень
душно
1014.8 1003.2
18 19.09 штиль 0 7000 м 5/5 480 м
[Cu hum Ac trans Ci fib]
+24.6 +22.4 88 +32 +32 очень
душно
1013.9 1002.3
21 19.09 штиль 0 7000 м 5/5 480 м
[Cu hum Ac trans Ci fib]
+23.8 +21.9 89 +31 +31 очень
душно
1014.0 1002.4
00 20.09 В 6 7000 м 6/6 480 м
[Cu hum Ac trans Ci fib]
+26.4 +21.7 75 +34 +34 очень
душно
1015.4 1003.8 +23.1
03 20.09 В 5 8000 м 8/6 480 м
[Cu hum Ac trans Ci fib]
+29.4 +19.7 56 +35 +38 очень
душно
1014.6 1003.0
06 20.09 В 5 8000 м 6/5 480 м
[Cu hum Ac trans Ci fib]
+30.2 +21.0 58 +38 +42 очень
душно
1012.0 1000.4
09 20.09 ЮВ 5 8000 м 5/4 480 м
[Cu hum Ac trans Ci fib]
+27.9 +21.7 69 +36 +36 очень
душно
1011.8 1000.2
12 20.09 Ю 3 7000 м 6/5 480 м
[Cu hum Ac trans Ci fib]
+25.2 +22.1 83 +33 +33 очень
душно
1013.4 1001.8 +30.7
15 20.09 Ю 1 7000 м 6/5 480 м
[Cu hum Ac trans Ci fib]
+24.6 +21.8 84 +31 +31 очень
душно
1014.1 1002.5

 

Местоположение метеостанции Матарам (Индонезия): широта -8.53 долгота 116.06 высота над уровнем моря 3 м.

В архиве по умолчанию представлена погода в Матараме за последнюю неделю. Архивные данные за месяц целиком и за предыдущие месяцы, начиная с января 2011 года, Вы можете получить, выбрав интересующий диапазон дат из раскрывающегося списка и нажав кнопку "Ввод!".


*Определитесь, кто Вы:
робот инопланетянин человек

Внимание! Время в таблицах - всемирное. Для получения местного времени необходимо прибавить поправку, которая равна 8 ч.

Смотрите также архив погоды в соседних городах и на ближайших метеорологических станциях:

Погода в Денпасаре (Индонезия) (102 км)
Погода в Сумбава-Бесаре (Индонезия) (149 км)
Погода в Банюванги (Индонезия) (188 км)
Погода в Калиянджете (Индонезия) (284 км)
Погода в Биме (Индонезия) (290 км)
Погода в Сурабая Геданган (Индонезия) (297 км)
Погода в Аэропорту Джуанда (Индонезия) (386 км)
Погода в Сурабая Перак (Индонезия) (397 км)
Погода в Сангкапуре (Индонезия) (482 км)
Погода в Рутенге (Индонезия) (483 км)

Пояснения к столбцам:

Ветер - указаны скорость ветра в м/с - средняя за 10 мин, порывы в срок и между сроками (в фигурных скобках) и направление, откуда дует ветер: С - северный, СВ - северо-восточный, В - восточный, ЮВ - юго-восточный, Ю - южный, ЮЗ - юго-западный, З - западный, СЗ - северо-западный.
Видимость - горизонтальная дальность видимости в метрах или километрах. При видимости от 1 до 10 км при отсутствии осадков обычно наблюдается дымка, при ухудшении видимости до 1 км и менее - туман. В сухую погоду видимость может ухудшаться дымом, пылью или мглою.
Явления - указаны атмосферные явления, наблюдавшиеся в срок или в последний час перед сроком; фигурными скобками обозначены явления, наблюдавшиеся между сроками (за 1-3 часа до срока); квадратными скобками обозначены град или гололедные отложения с указанием их диаметра в мм.
Облачность - указаны через наклонную черту общая и нижняя облачность в баллах и высота нижней границы облаков в метрах; квадратными скобками обозначены формы облаков: Ci - перистые, Cs - перисто-слоистые, Cc - перисто-кучевые, Ac - высококучевые, As - высокослоистые, Sc - слоисто-кучевые, Ns - слоисто-дождевые, Cu - кучевые, Cb - кучево-дождевые. Подробнее классификацию облаков см. в Атласе облаков (PDF).
T - Температура воздуха - температура, измеренная на высоте 2 м над землей.
Td - Температура точки росы - температура, при понижении до которой содержащийся в воздухе водяной пар достигнет насыщения.
f - Относительная влажность воздуха - влажноcть воздуха, измеренная на высоте 2 м над землей.
Te - Эффективная температура - температура, которую ощущает одетый по сезону человек в тени. Характеристика душности погоды. При расчете учитывается влияние влажности воздуха и скорости ветра на теплоощущения человека.
Tes - Эффективная температура на солнце - температура, которую ощущает человек, с поправкой на солнечный нагрев. Характеристика знойности погоды. Зависит от высоты солнца над горизонтом, облачности и скорости ветра. Ночью, в пасмурную погоду, а также при ветре 12 м/с и более поправка равна нулю.
P - Атмосферное давление - приведенное к уровню моря атмосферное давление.
Po - Атмосферное давление - измеренное на уровне метеостанции атмосферное давление.
Tmin - Минимальная температура - минимум температуры воздуха на высоте 2 м над землей.
Tmax - Максимальная температура - максимум температуры воздуха на высоте 2 м над землей.
R - Количество осадков - Количество выпавших осадков за период времени, мм. При наведении курсора мыши на число - период времени, за который выпало указанное количество осадков.
R24 - Количество осадков - Количество выпавших осадков за 24 часа, мм.
S - Снежный покров - Высота снежного покрова, см. При наведении курсора мыши на число - состояние снежного покрова и степень покрытия местности в баллах.